EW5836 Weather Reports


Display with metric or nautical units.
time (UTC)temp
F
wind
direction
speed
MPH
gust
MPH
rain 1hr
in
rain 24hr
in
rain mn
in
humidity
%
barometer
mb
20260507193054 60 330 0.0 0.0 0.00 0.04 0.00 78 1013.9
20260507192538 61 330 0.0 0.0 0.00 0.04 0.00 78 1013.8
20260507192031 61 330 0.0 0.0 0.00 0.04 0.00 75 1013.7
20260507191535 60 330 0.0 0.0 0.00 0.04 0.00 76 1013.7
20260507191042 60 330 0.0 0.0 0.00 0.04 0.00 77 1013.6
20260507190547 61 330 0.0 0.0 0.00 0.04 0.00 78 1013.4
20260507190037 61 330 0.0 0.0 0.00 0.04 0.00 78 1013.4
20260507185602 61 330 0.0 0.0 0.00 0.04 0.00 76 1013.4
20260507185032 61 330 0.0 0.0 0.00 0.04 0.00 75 1013.3
20260507184538 61 331 0.0 0.0 0.00 0.04 0.00 75 1013.3
20260507184057 61 331 0.0 0.0 0.00 0.04 0.00 75 1013.2
20260507183533 61 331 0.0 0.0 0.00 0.04 0.00 75 1013.1
20260507183041 61 332 0.0 0.0 0.00 0.04 0.00 75 1013.1
20260507182607 61 332 0.0 0.0 0.00 0.04 0.00 75 1013.1
20260507182033 61 332 0.0 0.0 0.00 0.04 0.00 74 1013.0
20260507181559 61 332 0.0 0.0 0.00 0.04 0.00 74 1013.0
20260507181039 62 332 0.0 0.0 0.00 0.04 0.00 73 1013.0
20260507180605 62 332 0.0 0.0 0.00 0.04 0.00 72 1012.9
20260507180036 62 332 0.0 0.0 0.00 0.04 0.00 72 1012.9
20260507175540 62 332 0.0 0.0 0.00 0.08 0.00 70 1012.9
20260507175031 63 332 0.0 0.0 0.00 0.08 0.00 71 1012.9
20260507174534 63 332 0.0 0.0 0.00 0.08 0.00 70 1012.8
20260507174039 63 332 0.0 0.0 0.00 0.08 0.00 70 1012.8
20260507173544 64 332 0.0 0.0 0.00 0.08 0.00 68 1012.8
20260507173032 65 332 0.0 0.0 0.00 0.08 0.00 67 1012.8
20260507172557 65 332 0.0 0.0 0.00 0.08 0.00 66 1012.7
20260507172117 66 332 0.0 0.0 0.00 0.08 0.00 65 1012.7
20260507171531 66 332 0.0 0.0 0.00 0.08 0.00 65 1012.7
20260507171041 67 332 0.0 0.0 0.00 0.08 0.00 63 1012.7
20260507170546 67 332 0.0 0.0 0.00 0.08 0.00 62 1012.7
20260507170034 67 332 0.0 0.0 0.00 0.08 0.00 64 1012.7
20260507165537 67 170 0.0 0.0 0.00 0.08 0.00 64 1012.7
20260507165118 68 170 0.0 0.0 0.00 0.08 0.00 63 1012.7
20260507164533 68 170 0.0 0.0 0.00 0.08 0.00 61 1012.7
20260507164043 68 168 0.0 0.0 0.00 0.08 0.00 60 1012.6
20260507163611 69 136 0.0 0.0 0.00 0.08 0.00 56 1012.7
20260507163040 69 136 0.0 2.0 0.00 0.08 0.00 53 1012.6
20260507162544 69 136 0.0 2.0 0.00 0.08 0.00 52 1012.6
20260507162056 69 63 0.0 1.0 0.00 0.08 0.00 53 1012.6
20260507161531 69 93 0.0 0.0 0.00 0.08 0.00 52 1012.6
20260507161032 69 50 0.0 0.0 0.00 0.08 0.00 53 1012.5
20260507160538 69 102 0.0 3.0 0.00 0.08 0.00 56 1012.4
20260507160056 69 87 0.0 3.0 0.00 0.08 0.00 54 1012.4
20260507155531 69 122 0.0 2.0 0.00 0.12 0.00 54 1012.5
20260507155037 69 171 0.0 0.0 0.00 0.12 0.00 54 1012.4
20260507154539 69 47 0.0 1.0 0.00 0.12 0.00 55 1012.5
20260507154050 69 152 0.0 0.0 0.00 0.12 0.00 56 1012.5
20260507153534 69 152 0.0 2.0 0.00 0.12 0.00 55 1012.4
20260507153105 69 73 0.0 4.0 0.00 0.12 0.00 55 1012.4
20260507152550 69 100 2.0 6.0 0.00 0.12 0.00 55 1012.4
20260507152038 69 103 2.0 6.0 0.00 0.12 0.00 55 1012.5
20260507151540 69 131 1.0 4.0 0.00 0.12 0.00 57 1012.5
20260507151059 68 122 1.0 5.0 0.00 0.12 0.00 56 1012.5
20260507150541 68 140 0.0 5.0 0.00 0.12 0.00 57 1012.6
20260507150101 68 133 2.0 5.0 0.00 0.12 0.00 57 1012.7
20260507145543 68 92 0.0 4.0 0.00 2.36 0.00 57 1012.6
20260507145058 68 129 1.0 7.0 0.00 2.36 0.00 57 1012.6
20260507144541 68 150 4.0 8.0 0.00 2.36 0.00 60 1012.7
20260507144032 68 125 3.0 7.0 0.00 2.36 0.00 58 1012.8
20260507143539 68 129 0.0 4.0 0.00 2.36 0.00 59 1012.8
20260507143031 68 139 2.0 5.0 0.00 2.36 0.00 59 1012.8
20260507142537 68 139 0.0 9.0 0.00 2.36 0.00 57 1012.8
20260507142048 68 123 1.0 9.0 0.00 2.36 0.00 58 1012.8
20260507141549 68 161 0.0 9.0 0.00 2.36 0.00 60 1012.8
20260507140044 68 97 0.0 3.0 0.00 2.36 0.00 58 1012.9
20260507135551 68 158 0.0 2.0 0.00 2.36 0.00 60 1012.9
20260507135041 67 111 0.0 8.0 0.00 2.36 0.00 60 1013.0
20260507134536 67 139 4.0 8.0 0.00 2.36 0.00 58 1013.0
20260507134117 68 149 4.0 8.0 0.00 2.36 0.00 60 1013.1
20260507133533 68 149 4.0 8.0 0.00 2.36 0.00 58 1013.2
20260507133040 68 14 0.0 5.0 0.00 2.36 0.00 60 1013.2
20260507132544 68 183 1.0 5.0 0.00 2.36 0.00 61 1013.2
20260507132037 68 66 0.0 0.0 0.00 2.36 0.00 62 1013.3
20260507131538 67 348 0.0 1.0 0.00 2.36 0.00 63 1013.4
20260507131033 66 348 0.0 1.0 0.00 2.36 0.00 64 1013.4
20260507130538 66 153 0.0 0.0 0.00 2.36 0.00 62 1013.4
20260507130055 65 153 0.0 0.0 0.00 2.36 0.00 64 1013.4
20260507125536 66 153 0.0 0.0 0.00 2.36 0.00 65 1013.5
20260507125043 66 154 0.0 0.0 0.00 2.36 0.00 65 1013.5
20260507124545 66 139 0.0 0.0 0.00 2.36 0.00 64 1013.6
20260507124034 66 295 0.0 0.0 0.00 2.36 0.00 64 1013.6
20260507123540 66 295 0.0 0.0 0.00 2.36 0.00 64 1013.7
20260507123052 66 295 0.0 0.0 0.00 2.36 0.00 64 1013.7
20260507122535 66 295 0.0 0.0 0.00 2.36 0.00 65 1013.6
20260507122038 66 295 0.0 0.0 0.00 2.36 0.00 66 1013.7
20260507121539 66 295 0.0 0.0 0.00 2.36 0.00 66 1013.8
20260507121056 66 295 0.0 0.0 0.00 2.36 0.00 66 1013.8
20260507120540 66 295 0.0 0.0 0.00 2.36 0.00 66 1013.9
20260507120030 65 163 0.0 0.0 0.00 2.36 0.00 68 1013.9
20260507115553 65 163 0.0 0.0 0.00 2.36 0.00 67 1013.9
20260507115041 65 163 0.0 0.0 0.00 2.36 0.00 68 1013.9
20260507114536 64 163 0.0 0.0 0.00 2.36 0.00 68 1014.0
20260507114043 64 163 0.0 0.0 0.00 2.36 0.00 69 1014.0
20260507113609 64 163 0.0 5.0 0.00 2.36 0.00 69 1014.0
20260507113037 64 168 1.0 5.0 0.00 2.36 0.00 67 1014.0
20260507112542 65 189 0.0 4.0 0.00 2.36 0.00 66 1014.1
20260507112033 65 173 0.0 11.0 0.00 2.36 0.00 66 1014.1
20260507111535 65 121 5.0 11.0 0.00 2.36 0.00 64 1014.1
20260507111055 66 193 0.0 10.0 0.00 2.36 0.00 66 1014.2
20260507110531 66 135 6.0 10.0 0.00 2.36 0.00 64 1014.2
20260507110043 66 147 1.0 9.0 0.00 2.36 0.00 64 1014.3
20260507105607 66 178 0.0 9.0 0.00 2.36 0.00 65 1014.3
20260507105038 65 174 1.0 10.0 0.00 2.36 0.00 66 1014.3
20260507104535 66 137 5.0 8.0 0.00 2.36 0.00 65 1014.2
20260507104044 66 106 1.0 9.0 0.00 2.36 0.00 66 1014.3
20260507103549 65 152 5.0 9.0 0.00 2.36 0.00 66 1014.3
20260507103039 65 150 2.0 7.0 0.00 2.36 0.00 65 1014.4
20260507102534 65 354 0.0 10.0 0.00 2.36 0.00 62 1014.5
20260507102044 65 152 4.0 10.0 0.00 2.36 0.00 65 1014.5
20260507101546 65 127 0.0 7.0 0.00 2.36 0.00 67 1014.5
20260507101036 65 135 1.0 7.0 0.00 2.36 0.00 67 1014.5
20260507100554 65 135 5.0 7.0 0.00 2.36 0.00 66 1014.5
20260507100042 65 125 1.0 5.0 0.00 2.36 0.00 67 1014.5
20260507095546 64 147 3.0 5.0 0.00 2.40 0.00 68 1014.5
20260507095056 64 128 0.0 4.0 0.00 2.40 0.00 70 1014.5
20260507094531 63 133 2.0 9.0 0.00 2.40 0.00 70 1014.5
20260507094040 63 155 2.0 9.0 0.00 2.40 0.00 67 1014.5
20260507093543 64 146 4.0 8.0 0.00 2.40 0.00 67 1014.5
20260507093031 63 71 0.0 8.0 0.00 2.40 0.00 67 1014.5
20260507092535 63 79 0.0 8.0 0.00 2.40 0.00 66 1014.5
20260507092042 63 160 3.0 6.0 0.00 2.40 0.00 69 1014.5
20260507091543 63 139 0.0 4.0 0.00 2.40 0.00 70 1014.5
20260507091034 62 120 0.0 7.0 0.00 2.40 0.00 67 1014.5
20260507090537 62 167 0.0 7.0 0.00 2.40 0.00 68 1014.4
20260507090101 62 168 4.0 7.0 0.00 2.40 0.00 67 1014.4
20260507085543 62 180 2.0 7.0 0.00 3.54 0.00 69 1014.3
20260507085034 62 124 0.0 9.0 0.00 3.54 0.00 70 1014.4
20260507084537 62 170 3.0 9.0 0.00 3.54 0.00 70 1014.4
20260507084041 62 133 0.0 7.0 0.00 3.54 0.00 72 1014.4
20260507083602 61 145 2.0 7.0 0.00 3.54 0.00 69 1014.4
20260507083048 61 175 0.0 6.0 0.00 3.54 0.00 71 1014.3
20260507082550 61 135 3.0 4.0 0.00 3.54 0.00 71 1014.3
20260507082041 60 116 2.0 6.0 0.00 3.54 0.00 70 1014.3
20260507081543 60 154 0.0 6.0 0.00 3.54 0.00 69 1014.3
20260507081101 60 125 0.0 3.0 0.00 3.54 0.00 70 1014.3
20260507080541 59 73 0.0 3.0 0.00 3.54 0.00 73 1014.3
20260507080032 59 140 1.0 6.0 0.00 3.54 0.00 74 1014.3
20260507075531 58 105 0.0 6.0 0.00 4.84 0.00 76 1014.3
20260507075044 58 148 2.0 5.0 0.00 4.84 0.00 76 1014.3
20260507074547 58 139 1.0 4.0 0.00 4.84 0.00 79 1014.3
20260507074042 58 139 2.0 4.0 0.00 4.84 0.00 80 1014.2
20260507073546 58 139 1.0 3.0 0.00 4.84 0.00 82 1014.3
20260507073104 58 139 0.0 0.0 0.00 4.84 0.00 81 1014.3
20260507072547 57 137 0.0 0.0 0.00 4.84 0.00 83 1014.2
20260507072039 57 137 0.0 0.0 0.00 4.84 0.00 85 1014.2
20260507071539 57 137 0.0 0.0 0.00 4.84 0.00 85 1014.2
20260507071057 57 138 0.0 0.0 0.00 4.84 0.00 85 1014.1
20260507070540 57 159 0.0 0.0 0.00 4.84 0.00 87 1014.1
20260507070058 57 159 0.0 0.0 0.00 4.84 0.00 88 1014.0
20260507065533 57 160 0.0 1.0 0.00 6.85 0.00 87 1013.9
20260507065038 57 354 0.0 1.0 0.00 6.85 0.00 87 1013.9
20260507064542 57 347 0.0 0.0 0.00 6.85 0.00 88 1014.0
20260507064030 56 347 0.0 0.0 0.00 6.85 0.00 89 1013.9
20260507063534 56 347 0.0 0.0 0.00 6.85 0.00 90 1013.9
20260507063106 56 347 0.0 0.0 0.00 6.85 0.00 90 1013.9
20260507062550 56 347 0.0 0.0 0.00 6.85 0.00 91 1013.9
20260507062107 55 347 0.0 0.0 0.00 6.85 0.00 92 1013.9
20260507061610 55 347 0.0 0.0 0.00 6.85 0.00 92 1013.8
20260507061107 55 347 0.0 0.0 0.00 6.85 0.00 93 1013.8
20260507060550 54 347 0.0 0.0 0.00 6.85 0.00 93 1013.8
20260507055545 54 347 0.0 0.0 0.00 6.97 0.00 93 1013.7
20260507055035 54 347 0.0 0.0 0.00 6.97 0.00 94 1013.7
20260507054539 53 347 0.0 0.0 0.00 6.97 0.00 94 1013.6
20260507054058 53 347 0.0 0.0 0.00 6.97 0.00 95 1013.6
20260507053533 53 347 0.0 0.0 0.00 6.97 0.00 95 1013.5
20260507053109 52 347 0.0 0.0 0.00 6.97 0.00 95 1013.4
20260507052609 52 347 0.0 0.0 0.00 6.97 0.00 95 1013.3
20260507052035 52 347 0.0 0.0 0.00 6.97 0.00 95 1013.3
20260507051538 51 347 0.0 0.0 0.00 6.97 0.00 95 1013.3
20260507051049 51 347 0.0 0.0 0.00 6.97 0.00 95 1013.2
20260507050551 51 347 0.0 0.0 0.00 6.97 0.00 95 1013.2
20260507050045 51 347 0.0 0.0 0.00 6.97 0.00 95 1013.0
20260507045546 51 347 0.0 0.0 0.00 7.40 0.00 95 1012.9
20260507045057 50 347 0.0 0.0 0.00 7.40 0.00 95 1012.9
20260507044531 50 347 0.0 0.0 0.00 7.40 0.00 95 1012.9
20260507044105 50 347 0.0 0.0 0.00 7.40 0.00 95 1012.8
20260507043608 50 347 0.0 0.0 0.00 7.40 0.00 95 1012.7
20260507043106 50 347 0.0 0.0 0.00 7.40 0.00 95 1012.7
20260507042607 50 347 0.0 0.0 0.00 7.40 0.00 95 1012.6
20260507042043 50 347 0.0 0.0 0.00 7.40 0.00 95 1012.5
20260507041548 50 347 0.0 0.0 0.00 7.40 0.00 95 1012.5
20260507041039 50 347 0.0 0.0 0.00 7.40 0.00 94 1012.5
20260507040600 51 347 0.0 0.0 0.00 7.40 0.00 94 1012.5
20260507040058 51 347 0.0 0.0 0.00 7.40 0.00 94 1012.6
20260507035531 51 347 0.0 0.0 0.00 7.48 0.00 94 1012.5
20260507035042 51 347 0.0 0.0 0.00 7.48 0.00 94 1012.5
20260507034544 51 347 0.0 0.0 0.00 7.48 0.00 94 1012.4
20260507034035 51 347 0.0 0.0 0.00 7.48 0.00 94 1012.4
20260507033541 51 347 0.0 0.0 0.00 7.48 0.00 94 1012.3
20260507033118 51 347 0.0 0.0 0.00 7.48 0.00 94 1012.3
20260507032533 51 347 0.0 0.0 0.00 7.48 0.00 94 1012.3
20260507032038 51 347 0.0 0.0 0.00 7.48 0.00 94 1012.3
20260507031603 51 347 0.0 0.0 0.00 7.48 0.00 94 1012.3
20260507031034 51 347 0.0 0.0 0.00 7.48 0.00 94 1012.3
20260507030538 51 347 0.0 0.0 0.00 7.48 0.00 94 1012.4
20260507030035 51 347 0.0 0.0 0.00 7.48 0.00 94 1012.3
20260507025542 51 347 0.0 0.0 0.00 7.48 0.00 94 1012.4
20260507025032 51 347 0.0 0.0 0.00 7.48 0.00 94 1012.4
20260507024538 51 347 0.0 0.0 0.00 7.48 0.00 94 1012.3
20260507024043 52 347 0.0 0.0 0.00 7.48 0.00 94 1012.4
20260507023550 52 347 0.0 0.0 0.00 7.48 0.00 93 1012.4
20260507023039 52 347 0.0 0.0 0.00 7.48 0.00 93 1012.3
20260507022541 52 347 0.0 0.0 0.00 7.48 0.00 93 1012.3
20260507022055 52 347 0.0 0.0 0.00 7.48 0.00 93 1012.3
20260507021531 52 347 0.0 0.0 0.00 7.48 0.00 93 1012.3
20260507021042 52 347 0.0 0.0 0.00 7.48 0.00 93 1012.3
20260507020544 53 347 0.0 0.0 0.00 7.48 0.00 93 1012.3
20260507020037 53 347 0.0 0.0 0.00 7.48 0.00 93 1012.3
20260507015538 53 347 0.0 0.0 0.00 7.56 0.00 93 1012.3
20260507015031 53 347 0.0 0.0 0.00 7.56 0.00 93 1012.3
20260507014551 53 347 0.0 0.0 0.00 7.56 0.00 94 1012.2
20260507014036 53 347 0.0 0.0 0.00 7.56 0.00 94 1012.2
20260507013542 53 347 0.0 0.0 0.00 7.56 0.00 94 1012.2
20260507013031 53 347 0.0 0.0 0.00 7.56 0.00 94 1012.2
20260507012535 53 347 0.0 0.0 0.00 7.56 0.00 94 1012.2
20260507012041 53 347 0.0 0.0 0.00 7.56 0.00 94 1012.2
20260507011545 53 347 0.0 0.0 0.00 7.56 0.00 94 1012.3
20260507010533 53 347 0.0 0.0 0.00 7.56 0.00 94 1012.3
20260507010039 53 347 0.0 0.0 0.00 7.56 0.00 94 1012.2
20260507005542 53 347 0.0 0.0 0.00 7.60 0.00 94 1012.2
20260507005032 53 347 0.0 0.0 0.00 7.60 0.00 94 1012.2
20260507004557 52 347 0.0 0.0 0.00 7.60 0.00 94 1012.2
20260507004056 52 347 0.0 0.0 0.00 7.60 0.00 94 1012.2
20260507003533 52 347 0.0 0.0 0.00 7.60 0.00 94 1012.2
20260507003044 52 347 0.0 0.0 0.00 7.60 0.00 94 1012.2
20260507002547 52 347 0.0 0.0 0.00 7.60 0.00 95 1012.2
20260507002040 52 347 0.0 0.0 0.00 7.60 0.00 95 1012.1
20260507001540 52 347 0.0 0.0 0.00 7.60 0.00 95 1012.1
20260507001037 52 347 0.0 0.0 0.00 7.60 0.00 95 1012.0
20260507000542 52 347 0.0 0.0 0.00 7.60 0.00 95 1012.0
20260507000034 52 347 0.0 0.0 0.00 7.60 0.00 94 1012.0
20260506235538 52 347 0.0 0.0 0.00 7.60 0.00 94 1012.0
20260506235118 52 347 0.0 0.0 0.00 7.60 0.00 94 1011.9
20260506234532 52 347 0.0 0.0 0.00 7.60 0.00 94 1011.9
20260506234040 53 347 0.0 0.0 0.00 7.60 0.00 94 1011.8
20260506233536 53 347 0.0 0.0 0.00 7.60 0.00 94 1011.8
20260506233049 53 347 0.0 0.0 0.00 7.60 0.00 94 1011.8
20260506232532 53 347 0.0 0.0 0.00 7.60 0.00 94 1011.8
20260506232042 53 347 0.0 0.0 0.00 7.60 0.00 93 1011.7
20260506231544 53 347 0.0 0.0 0.00 7.60 0.00 93 1011.7
20260506231042 54 347 0.0 0.0 0.00 7.60 0.00 93 1011.7
20260506230548 54 347 0.0 0.0 0.00 7.60 0.00 93 1011.7
20260506230038 54 347 0.0 0.0 0.00 7.60 0.00 93 1011.6
20260506225542 54 347 0.0 0.0 0.04 7.60 0.00 92 1011.5
20260506225059 55 347 0.0 0.0 0.04 7.60 0.00 92 1011.6
20260506224541 55 347 0.0 0.0 0.04 7.60 0.00 92 1011.5
20260506224033 55 347 0.0 0.0 0.04 7.60 0.00 92 1011.5
20260506223538 55 347 0.0 0.0 0.04 7.60 0.00 92 1011.4
20260506223030 56 347 0.0 0.0 0.04 7.60 0.00 92 1011.4
20260506222534 55 347 0.0 0.0 0.04 7.60 0.00 92 1011.4
20260506222045 55 347 0.0 0.0 0.04 7.60 0.00 92 1011.3
20260506221546 55 347 0.0 0.0 0.04 7.60 0.00 92 1011.3
20260506221035 55 347 0.0 0.0 0.04 7.60 0.00 93 1011.4
20260506220537 56 347 0.0 0.0 0.04 7.60 0.00 93 1011.7
20260506220047 56 347 0.0 0.0 0.04 7.60 0.00 93 1011.7
20260506215543 56 347 0.0 0.0 0.00 7.56 1.51 93 1011.7
20260506215034 56 347 0.0 0.0 0.00 7.56 1.51 93 1011.6
20260506214540 56 347 0.0 0.0 0.00 7.56 1.51 93 1011.6
20260506214038 55 347 0.0 0.0 0.00 7.56 1.51 93 1011.7
20260506213544 55 354 0.0 0.0 0.00 7.56 1.51 94 1011.6
20260506213043 55 354 0.0 0.0 0.00 7.56 1.51 94 1011.6
20260506212544 55 354 0.0 0.0 0.00 7.56 1.51 94 1011.6
20260506212104 55 354 0.0 0.0 0.00 7.56 1.51 93 1011.5
20260506211548 55 354 0.0 0.0 0.00 7.56 1.51 93 1011.3
20260506211036 55 354 0.0 0.0 0.00 7.56 1.51 93 1011.3
20260506210541 55 354 0.0 0.0 0.00 7.56 1.51 93 1011.3
20260506210104 55 354 0.0 0.0 0.00 7.56 1.51 93 1011.3
20260506205542 56 354 0.0 0.0 0.00 7.56 1.51 93 1011.3
20260506205035 56 354 0.0 0.0 0.00 7.56 1.51 93 1011.2
20260506204700 56 354 0.0 0.0 0.00 7.56 1.51 92 1011.1
20260506204035 56 354 0.0 0.0 0.00 7.56 1.51 92 1011.1
20260506203554 56 354 0.0 0.0 0.00 7.56 1.51 92 1011.1
20260506203047 56 354 0.0 0.0 0.00 7.56 1.51 92 1011.0
20260506202610 56 354 0.0 0.0 0.00 7.56 1.51 91 1011.0
20260506202104 56 354 0.0 0.0 0.00 7.56 1.51 91 1010.9
20260506201547 56 354 0.0 0.0 0.00 7.56 1.51 92 1010.9
20260506201039 56 354 0.0 0.0 0.00 7.56 1.51 92 1010.8
20260506200534 56 354 0.0 0.0 0.00 7.56 1.51 92 1010.7
20260506200108 56 354 0.0 0.0 0.00 7.56 1.51 92 1010.7
20260506195541 56 354 0.0 0.0 0.00 7.56 1.51 92 1010.6
20260506195032 56 354 0.0 0.0 0.00 7.56 1.51 92 1010.5
20260506194534 56 354 0.0 0.0 0.00 7.56 1.51 92 1010.4
20260506194043 56 354 0.0 0.0 0.00 7.56 1.51 91 1010.4
20260506193549 56 354 0.0 0.0 0.00 7.56 1.51 91 1010.3